{"data":{"norad_id":60086,"intl_designator":"2024-115A","name":"ASTRA 1P (SES-24)","alt_names":[],"object_type":"PAYLOAD","status":"ACTIVE","operator":null,"country":"SES","launch_date":"2024-06-20","launch_site_code":"AFETR","launch_vehicle":null,"mission":null,"orbit_class":"UNKNOWN","rcs_meters":null,"size_class":null,"mass_kg":null,"dimensions":null,"purposes":["comms"],"wikipedia_slug":null,"has_3d_model":false,"image_url":null,"decayed_at":null,"tle_current":{"epoch":"2026-09-19T15:21:08.133408Z","epoch_age_seconds":88766,"freshness":"FRESH","line1":"1 60086U 24115A   26262.63967747  .00000116  00000+0  00000+0 0  9996","line2":"2 60086   0.0602 343.9545 0001979 244.0752  20.0129  1.00271987  8145","mean_motion":1.00271987,"eccentricity":0.0001979,"inclination_deg":0.0602,"raan_deg":343.9545,"arg_perigee_deg":244.0752,"mean_anomaly_deg":20.0129,"bstar":0,"rev_number":814,"period_min":1436.0940109823,"perigee_km":35778.193944104,"apogee_km":35794.882722601,"semimajor_km":42164.675333353,"source":"CELESTRAK","updated_at":"2026-09-20T09:00:35.690129Z"}}}